FW4685 Weather Reports


Display with metric or nautical units.
time (UTC)temp
F
wind
direction
speed
MPH
gust
MPH
rain 1hr
in
rain 24hr
in
rain mn
in
humidity
%
barometer
mb
20260901192031 67 279 0.0 5.0 0.00 0.00 0.00 67 1021.7
20260901191026 67 195 0.0 2.0 0.00 0.00 0.00 67 1021.6
20260901190018 67 280 0.0 5.0 0.00 0.00 0.00 67 1021.6
20260901185051 67 213 0.0 2.0 0.00 0.00 0.00 67 1021.4
20260901184025 68 240 0.0 2.0 0.00 0.00 0.00 66 1021.3
20260901183018 68 156 0.0 5.0 0.00 0.00 0.00 65 1021.3
20260901182028 69 78 0.0 5.0 0.00 0.00 0.00 64 1021.5
20260901181018 70 249 1.0 5.0 0.00 0.00 0.00 63 1021.4
20260901175531 71 201 1.0 7.0 0.00 0.00 0.00 61 1021.3
20260901174525 71 219 1.0 5.0 0.00 0.00 0.00 59 1021.2
20260901173516 72 200 0.0 5.0 0.00 0.00 0.00 57 1021.2
20260901172525 72 173 0.0 2.0 0.00 0.00 0.00 56 1021.3
20260901171526 73 234 0.0 2.0 0.00 0.00 0.00 52 1021.1
20260901170538 74 102 0.0 2.0 0.00 0.00 0.00 50 1021.2
20260901165526 75 46 0.0 5.0 0.00 0.00 0.00 47 1021.1
20260901164518 75 332 1.0 7.0 0.00 0.00 0.00 45 1021.0
20260901163526 75 323 1.0 7.0 0.00 0.00 0.00 41 1021.0
20260901162532 74 355 1.0 7.0 0.00 0.00 0.00 43 1021.0
20260901161525 74 329 1.0 5.0 0.00 0.00 0.00 44 1021.0
20260901160552 75 282 1.0 7.0 0.00 0.00 0.00 43 1021.0
20260901155517 76 327 0.0 5.0 0.00 0.00 0.00 43 1021.1
20260901154530 76 148 0.0 2.0 0.00 0.00 0.00 42 1021.2
20260901153524 77 21 0.0 0.0 0.00 0.00 0.00 42 1021.2
20260901152518 77 36 0.0 2.0 0.00 0.00 0.00 40 1021.5
20260901151531 78 314 1.0 10.0 0.00 0.00 0.00 40 1021.3
20260901150525 78 344 1.0 5.0 0.00 0.00 0.00 42 1021.3
20260901145519 77 228 1.0 5.0 0.00 0.00 0.00 38 1021.4
20260901144528 76 348 1.0 12.0 0.00 0.00 0.00 40 1021.3
20260901143525 76 323 1.0 7.0 0.00 0.00 0.00 44 1021.4
20260901142518 77 343 1.0 7.0 0.00 0.00 0.00 42 1021.6
20260901141545 78 333 1.0 10.0 0.00 0.00 0.00 42 1021.5
20260901140519 79 334 2.0 10.0 0.00 0.00 0.00 41 1021.5
20260901135530 79 306 2.0 7.0 0.00 0.00 0.00 39 1021.6
20260901134524 79 119 1.0 5.0 0.00 0.00 0.00 40 1021.6
20260901133519 78 175 1.0 5.0 0.00 0.00 0.00 40 1021.7
20260901132531 78 125 1.0 7.0 0.00 0.00 0.00 41 1021.8
20260901131520 78 225 1.0 5.0 0.00 0.00 0.00 41 1021.8
20260901130530 77 96 1.0 7.0 0.00 0.00 0.00 41 1022.0
20260901125524 76 346 1.0 7.0 0.00 0.00 0.00 42 1022.0
20260901124539 75 206 1.0 7.0 0.00 0.00 0.00 45 1022.1
20260901123528 75 246 1.0 10.0 0.00 0.00 0.00 46 1022.1
20260901122525 74 268 1.0 5.0 0.00 0.00 0.00 49 1022.2
20260901121532 74 258 1.0 10.0 0.00 0.00 0.00 50 1022.2
20260901120525 74 200 0.0 5.0 0.00 0.00 0.00 51 1022.2
20260901115540 74 76 0.0 5.0 0.00 0.00 0.00 50 1022.3
20260901114525 73 233 1.0 7.0 0.00 0.00 0.00 51 1022.4
20260901113518 73 161 1.0 5.0 0.00 0.00 0.00 51 1022.3
20260901112529 74 211 1.0 7.0 0.00 0.00 0.00 52 1022.3
20260901111516 74 219 1.0 5.0 0.00 0.00 0.00 50 1022.4
20260901110530 74 231 1.0 5.0 0.00 0.00 0.00 48 1022.4
20260901105520 74 198 1.0 10.0 0.00 0.00 0.00 47 1022.5
20260901104532 73 180 1.0 7.0 0.00 0.00 0.00 49 1022.5
20260901103532 73 118 0.0 2.0 0.00 0.00 0.00 48 1022.5
20260901102519 73 18 1.0 5.0 0.00 0.00 0.00 48 1022.6
20260901101529 72 145 1.0 5.0 0.00 0.00 0.00 47 1022.8
20260901100525 71 313 1.0 7.0 0.00 0.00 0.00 49 1022.9
20260901095516 70 99 1.0 5.0 0.00 0.00 0.00 50 1022.9
20260901094529 69 344 0.0 5.0 0.00 0.00 0.00 51 1023.1
20260901093544 68 212 0.0 2.0 0.00 0.00 0.00 58 1023.1
20260901092517 67 143 0.0 2.0 0.00 0.00 0.00 59 1023.1
20260901091530 66 158 0.0 5.0 0.00 0.00 0.00 61 1023.1
20260901090526 65 152 0.0 0.0 0.00 0.00 0.00 63 1023.0
20260901085531 64 10 0.0 5.0 0.00 0.00 0.00 64 1022.9
20260901084545 64 212 0.0 2.0 0.00 0.00 0.00 66 1022.9
20260901083531 63 173 0.0 2.0 0.00 0.00 0.00 69 1022.9
20260901082524 62 344 0.0 2.0 0.00 0.00 0.00 72 1022.8
20260901081519 62 244 0.0 2.0 0.00 0.00 0.00 74 1022.8
20260901080528 61 82 0.0 2.0 0.00 0.00 0.00 75 1022.9
20260901075517 59 90 0.0 0.0 0.00 0.00 0.00 75 1022.8
20260901074528 58 163 0.0 0.0 0.00 0.00 0.00 79 1022.7
20260901073526 56 65 0.0 0.0 0.00 0.00 0.00 83 1022.6
20260901072529 55 134 0.0 0.0 0.00 0.00 0.00 88 1022.6
20260901071604 54 229 0.0 0.0 0.00 0.00 0.00 90 1022.6
20260901070545 54 123 0.0 0.0 0.00 0.00 0.00 93 1022.5
20260901065521 53 156 0.0 0.0 0.00 0.00 0.00 94 1022.5
20260901064119 53 249 0.0 0.0 0.00 0.00 0.00 94 1022.5
20260901063027 52 64 0.0 0.0 0.00 0.00 0.00 94 1022.4
20260901062023 52 112 0.0 0.0 0.00 0.00 0.00 95 1022.4
20260901061016 52 133 0.0 0.0 0.00 0.00 0.00 95 1022.3
20260901060018 51 65 0.0 0.0 0.00 0.00 0.00 95 1022.2
20260901055029 51 72 0.0 0.0 0.00 0.00 0.00 95 1022.1
20260901054024 51 72 0.0 0.0 0.00 0.00 0.00 95 1022.1
20260901053016 51 71 0.0 0.0 0.00 0.00 0.00 94 1022.1
20260901052028 50 82 0.0 0.0 0.00 0.00 0.00 94 1022.0
20260901051023 50 66 0.0 0.0 0.00 0.00 0.00 94 1021.8
20260901050029 50 79 0.0 0.0 0.00 0.00 0.00 94 1021.8
20260901045036 50 67 0.0 0.0 0.00 0.00 0.00 93 1021.8
20260901044018 50 65 0.0 0.0 0.00 0.00 0.00 93 1021.8
20260901043030 50 69 0.0 0.0 0.00 0.00 0.00 93 1021.6
20260901042023 50 79 0.0 0.0 0.00 0.00 0.00 93 1021.7
20260901041016 51 65 0.0 0.0 0.00 0.00 0.00 92 1021.5
20260901040027 51 65 0.0 0.0 0.00 0.00 0.00 92 1021.6
20260901035025 51 68 0.0 0.0 0.00 0.00 0.00 92 1021.4
20260901034027 51 71 0.0 0.0 0.00 0.00 0.00 91 1021.6
20260901033019 52 104 0.0 0.0 0.00 0.00 0.00 91 1021.4
20260901032112 52 84 0.0 0.0 0.00 0.00 0.00 90 1021.4
20260901031023 52 95 0.0 0.0 0.00 0.00 0.00 90 1021.4
20260901030020 53 93 0.0 0.0 0.00 0.00 0.00 89 1021.3
20260901025017 53 102 0.0 0.0 0.00 0.00 0.00 89 1021.3
20260901024026 54 103 0.0 0.0 0.00 0.00 0.00 88 1021.4
20260901023015 54 95 0.0 0.0 0.00 0.00 0.00 87 1021.5
20260901022029 55 103 0.0 0.0 0.00 0.00 0.00 86 1021.5
20260901021024 55 83 0.0 0.0 0.00 0.00 0.00 85 1021.5
20260901020018 56 102 0.0 0.0 0.00 0.00 0.00 84 1021.3
20260901015027 56 187 0.0 2.0 0.00 0.00 0.00 84 1021.4
20260901014024 56 293 0.0 0.0 0.00 0.00 0.00 83 1021.3
20260901013015 56 82 0.0 0.0 0.00 0.00 0.00 82 1021.5
20260901012109 57 44 0.0 2.0 0.00 0.00 0.00 81 1021.4
20260901011044 57 34 0.0 0.0 0.00 0.00 0.00 80 1021.3
20260901010018 58 341 0.0 2.0 0.00 0.00 0.00 79 1021.2
20260901005028 58 16 0.0 0.0 0.00 0.00 0.00 78 1021.3
20260901004024 59 40 0.0 0.0 0.00 0.00 0.00 77 1021.2
20260901003016 60 31 0.0 0.0 0.00 0.00 0.00 75 1021.1
20260901002028 60 309 0.0 5.0 0.00 0.00 0.00 75 1021.1
20260901001023 60 288 1.0 5.0 0.00 0.00 0.00 74 1021.2
20260901000031 61 275 0.0 2.0 0.00 0.00 0.00 73 1021.0
20260831235023 61 303 1.0 7.0 0.00 0.00 0.00 72 1021.1
20260831234030 62 321 1.0 7.0 0.00 0.00 0.00 71 1020.9
20260831233017 62 285 0.0 5.0 0.00 0.00 0.00 71 1021.0
20260831232045 62 312 0.0 5.0 0.00 0.00 0.00 70 1020.8
20260831231039 63 310 0.0 2.0 0.00 0.00 0.00 70 1020.9
20260831230017 63 313 1.0 5.0 0.00 0.00 0.00 69 1020.7
20260831225029 63 307 0.0 2.0 0.00 0.00 0.00 69 1020.7
20260831224023 63 309 1.0 5.0 0.00 0.00 0.00 68 1020.8
20260831223055 63 322 1.0 5.0 0.00 0.00 0.00 67 1020.8
20260831222027 63 299 1.0 7.0 0.00 0.00 0.00 69 1020.7
20260831221025 62 296 1.0 5.0 0.00 0.00 0.00 72 1020.6
20260831220017 62 62 0.0 0.0 0.00 0.00 0.00 72 1020.5
20260831215028 62 293 0.0 2.0 0.00 0.00 0.00 72 1020.5
20260831214043 63 355 0.0 2.0 0.00 0.00 0.00 73 1020.3
20260831213016 63 76 0.0 0.0 0.00 0.00 0.00 73 1020.3
20260831212028 63 294 0.0 5.0 0.00 0.00 0.00 72 1020.2
20260831211023 64 322 0.0 2.0 0.00 0.00 0.00 71 1020.0
20260831210016 64 14 0.0 5.0 0.00 0.00 0.00 71 1020.0
20260831205027 64 338 0.0 2.0 0.00 0.00 0.00 71 1019.9
20260831204023 64 53 0.0 0.0 0.00 0.00 0.00 70 1019.7
20260831203017 64 14 0.0 0.0 0.00 0.00 0.00 71 1019.6
20260831202028 64 284 0.0 2.0 0.00 0.00 0.00 71 1019.5
20260831201023 64 288 0.0 5.0 0.00 0.00 0.00 71 1019.4
20260831200017 65 64 0.0 0.0 0.00 0.00 0.00 71 1019.3
20260831195029 65 137 0.0 0.0 0.00 0.00 0.00 70 1019.0
20260831194043 66 282 0.0 2.0 0.00 0.00 0.00 69 1018.9
20260831193018 66 247 0.0 2.0 0.00 0.00 0.00 68 1018.8